Regional Weather Roundup
Issued by NWS

Home | Current Version | Previous Version | Graphics & Text | Print | Product List | Glossary On
Versions: 1 2 3 4 5 6 7 8 9 10 11 12 13 14 15 16 17 18 19 20 21 22 23 24 25 26 27 28 29 30 31 32 33 34 35 36 37 38 39 40 41 42 43 44 45 46 47 48 49 50
701
ASUS43 KFSD 091810
RWRSD

WEATHER ROUNDUP FOR SOUTH DAKOTA
NATIONAL WEATHER SERVICE SIOUX FALLS SD
1200 PM CST TUE FEB 09 2016

NOTE: "FAIR" INDICATES FEW OR NO CLOUDS BELOW 12,000 FEET WITH NO
SIGNIFICANT WEATHER AND/OR OBSTRUCTIONS TO VISIBILITY.


SDZ001>005-009-010-012>017-091900-
NORTHWEST AND NORTH CENTRAL SOUTH DAKOTA

CITY           SKY/WX    TMP DP  RH WIND       PRES   REMARKS
BUFFALO          N/A     44  29  55 NW22      30.13S
FAITH            N/A     29  19  66 S14       30.20F WCI  18
MOBRIDGE       CLOUDY    32  12  43 SW9       30.22F WCI  24
$$

SDZ012>016-024>037-041>051-057-063-072>074-091900-
SOUTHWEST AND SOUTH CENTRAL SOUTH DAKOTA

CITY           SKY/WX    TMP DP  RH WIND       PRES   REMARKS
RAPID CTY ARPT CLOUDY    47  30  51 N17       30.19F
PIERRE         CLOUDY    29  10  45 SW9       30.27F WCI  20
CUSTER         CLOUDY    42  22  44 NW10G22   30.20R
ELLSWORTH AFB  CLOUDY    46  30  55 N15G24    30.19S
PHILIP         CLOUDY    30  21  69 SE8       30.26F WCI  22
PINE RIDGE     CLOUDY    39  27  62 W5        30.23R
SPEARFISH      FAIR      45  28  53 W17G23    30.24S
WINNER         CLOUDY    27   8  44 SW7       30.29F WCI  19
$$

SDZ004>011-016>023-039-040-091900-
NORTHEAST SOUTH DAKOTA

CITY           SKY/WX    TMP DP  RH WIND       PRES   REMARKS
ABERDEEN       SUNNY     29  10  45 NW8       30.27F WCI  21
WATERTOWN      CLOUDY    18   5  57 NW13      30.21F WCI   5
BROOKINGS      CLOUDY    14   6  70 N14       30.22  WCI  -1
SISSETON         N/A     18   8  65 N14       30.26S WCI   4
$$

SDZ017-020-022-023-036>040-048>070-091900-
SOUTHEAST SOUTH DAKOTA

CITY           SKY/WX    TMP DP  RH WIND       PRES   REMARKS
SIOUX FALLS    CLOUDY    18   5  57 N16       30.24S WCI   3
HURON          CLOUDY    24  10  55 N9        30.29F WCI  14
CHAMBERLAIN    CLOUDY    27  10  47 W8        30.29F WCI  19
MITCHELL       CLOUDY    25  12  58 N16       30.31F WCI  12
YANKTON        SUNNY     21   9  58 NW17      30.29F WCI   7
$$

ABBREVIATIONS USED IN REMARKS
   TC - TEMPERATURE IN CELSIUS
  WCI - WIND CHILL INDEX
   HX - HEAT INDEX
  VSB - VISIBILITY





USA.gov is the U.S. government's official web portal to all federal, state and local government web resources and services.